This is the latest recevied weather packets stored in our database for station/object HOWARD. If no packets are shown the sender has not sent any weather packets the latest 10 day(s).
| Time | Temp. | Humidity | Pressure | Rain* | Wind** | Luminosity | Snow |
|---|---|---|---|---|---|---|---|
| 1777752744 | 10.56° C | 40% | 1015.9 hPa | 0 mm | - | - | - |
| 1777752704 | 10.56° C | 40% | 1015.9 hPa | 0 mm | - | - | - |
| 1777752104 | 10.56° C | 37% | 1015.9 hPa | 0 mm | - | - | - |
| 1777751504 | 10.56° C | 37% | 1015.9 hPa | 0 mm | - | - | - |
| 1777750940 | 10.56° C | 35% | 1015.9 hPa | 0 mm | - | - | - |
| 1777750904 | 10.56° C | 35% | 1015.9 hPa | 0 mm | - | - | - |
| 1777750304 | 10.56° C | 35% | 1016.1 hPa | 0 mm | - | - | - |
| 1777749704 | 11.11° C | 37% | 1016 hPa | 0 mm | - | - | - |
| 1777749104 | 11.11° C | 37% | 1016.1 hPa | 0 mm | - | - | - |
| 1777748504 | 11.11° C | 36% | 1016.1 hPa | 0 mm | - | - | - |
| 1777747904 | 11.11° C | 36% | 1016.3 hPa | 0 mm | - | - | - |
| 1777747304 | 11.67° C | 33% | 1015.6 hPa | 0 mm | - | - | - |
| 1777746704 | 11.11° C | 36% | 1015.7 hPa | 0 mm | - | - | - |
| 1777746104 | 11.11° C | 37% | 1015.6 hPa | 0 mm | - | - | - |
| 1777745504 | 11.11° C | 37% | 1015.7 hPa | 0 mm | - | - | - |
| 1777744904 | 11.11° C | 37% | 1015.7 hPa | 0 mm | - | - | - |
| 1777744304 | 11.11° C | 38% | 1015.8 hPa | 0 mm | - | - | - |
| 1777743704 | 10.56° C | 30% | 1015.7 hPa | 0 mm | - | - | - |
| 1777743104 | 10.56° C | 30% | 1015.8 hPa | 0 mm | - | - | - |
| 1777742504 | 10.56° C | 28% | 1015.9 hPa | 0 mm | - | - | - |
| 1777741904 | 10.56° C | 28% | 1015.8 hPa | 0 mm | - | - | - |
| 1777741304 | 10° C | 28% | 1015.8 hPa | 0 mm | - | - | - |
| 1777740704 | 10° C | 28% | 1015.7 hPa | 0 mm | - | - | - |
| 1777740104 | 10° C | 28% | 1015.6 hPa | 0 mm | - | - | - |
| 1777739540 | 10° C | 28% | 1015.6 hPa | 0 mm | - | - | - |
* Rain latest hour (hover to see other rain measurements)
** Current wind speed in m/s (hover to see current wind gust speed)